Tracking 31027 objects as of 19-Jul-2025
HD Live streaming from Space Station
objects crossing your sky now

USA 404

Track USA 404 now!
10-day predictions


NORAD ID: 61025
Int'l Code: 2024-160E
Perigee: 580.7 km
Apogee: 587.7 km
Inclination: 70.0 °
Period: 96.2 minutes
Semi major axis: 6955 km
RCS: Unknown
Launch date: September 6, 2024
Source: United States (US)
Launch site: AIR FORCE WESTERN TEST RANGE (AFWTR)
Your satellite tracking list
PRISMA
Track 1 satellite(s)




NASA's NSSDC Master Catalog

Two Line Element Set (TLE):
1 61025U 24160E   25103.82504730 0.00000000  00000-0  00000-0 0    00
2 61025  70.0000 356.3157 0005000 135.7905 224.2095 14.96714778    06
Source of the keplerian elements: McCants